Flag for Germany Weather past 2 weeks in Neumünster, Schleswig-Holstein, Germany

Now
64 °F

Low clouds.


Feels Like: 64 °F
Forecast: 62 / 80 °F
Wind: 3 mph from East

Location: Itzehoe

Current Time: Jul 26, 2014 at 9:44:34 AM

Latest Report: Jul 26, 2014 at 9:00 AM


Visibility: 9 mi

Pressure: 29.96 "Hg

Humidity: 95%

Dew point: 63 °F

Location of NeumünsterLocation

Historic Weather in Neumünster — Graph

°F

Neumünster temperature yesterday

Maximum temperature yesterday: 82 °F (at 3:00 PM)
Minimum temperature yesterday: 63 °F (at 3:00 AM)
Average temperature yesterday: 72 °F

Past Weeks' High & Low Weather Summary

 TemperatureHumidityPressure
High87 °F (Jul 19, 5:00 PM)99% (Jul 16, 7:00 AM)30.21 "Hg (Jul 16, 7:00 AM)
Low48 °F (Jul 17, 6:00 AM)32% (Jul 25, 3:00 PM)29.65 "Hg (Jul 14, 3:00 AM)
Average69 °F70%30.01 "Hg
* Reported Jul 11 7:00 AM — Jul 26 7:00 AM, Neumünster, Weather by CustomWeather, © 2014

Note: Actual official high and low records may vary slightly from our data, if they occured in-between our weather recording intervals... More about our weather records

Advertising

Neumünster weather history for previous 24 hours

 ConditionsComfort  
Time TempWeatherWind HumidityBarometerVisibility
7:00 AM
Jul 26
64 °FPartly sunny.2 mph96%29.95 "Hg3 mi
6:00 AM64 °FOvercast.3 mph92%29.96 "Hg4 mi
4:00 AM65 °FClear.3 mph87%29.95 "Hg6 mi
3:00 AM67 °FPassing clouds.3 mph83%29.96 "Hg11 mi
1:00 AM70 °FOvercast.5 mph72%29.96 "Hg11 mi
12:00 AM72 °FOvercast.5 mph66%29.96 "Hg12 mi
10:00 PM
Jul 25
72 °FOvercast.3 mph64%29.96 "Hg13 mi
9:00 PM73 °FOvercast.2 mph63%29.96 "Hg12 mi
7:00 PM78 °FPartly sunny.6 mph42%29.96 "Hg17 mi
6:00 PM80 °FOvercast.6 mph37%29.96 "Hg15 mi
4:00 PM81 °FSunny.7 mph36%29.97 "Hg10 mi
3:00 PM82 °FPassing clouds.8 mph32%29.98 "Hg7 mi
1:00 PM80 °FPassing clouds.7 mph51%30.00 "Hg9 mi
12:00 PM76 °FPartly sunny.7 mph62%30.01 "Hg6 mi
10:00 AM70 °FOvercast.6 mph76%30.03 "Hg11 mi
9:00 AM69 °FOvercast.5 mph78%30.03 "Hg11 mi
Weather by CustomWeather, © 2014

See weather overviewHow to use our weather pages